カタログに戻る

STARLINK-3749

運用中通信VLEO
NORAD 52313·PAYLOAD·🇺🇸 United States

打ち上げ Apr 21, 2022 から Cape Canaveral Space Force Station

Loading…

次のパス (今後24時間)

TLE

最新Source: CelesTrak SupGP

元期: Sep 15, 2026, 01:33 UTC

1 52313C 22041BE  26258.06506944  .00040195  00000+0  12197-2 0  2588
2 52313  53.1577 307.2246 0001207  86.1481  11.1093 15.33528109    19

AllMySatでSTARLINK-3749をリアルタイム追跡

Download on the App Store